This is the latest recevied weather packets stored in our database for station/object K4AVM-13. If no packets are shown the sender has not sent any weather packets the latest 10 day(s).
| Time | Temp. | Humidity | Pressure | Rain* | Wind** | Luminosity | Snow |
|---|---|---|---|---|---|---|---|
| 1777638672 | 12.22° C | 65% | 1017.7 hPa | 0 mm | - | 234 W/m² | - |
| 1777638369 | 12.22° C | 66% | 1017.7 hPa | 0 mm | - | 223 W/m² | - |
| 1777638065 | 11.67° C | 67% | 1017.6 hPa | 0 mm | - | 207 W/m² | - |
| 1777637761 | 11.11° C | 69% | 1017.7 hPa | 0 mm | - | 196 W/m² | - |
| 1777637458 | 10.56° C | 72% | 1017.7 hPa | 0 mm | - | 181 W/m² | - |
| 1777637155 | 10° C | 73% | 1017.9 hPa | 0 mm | - | 168 W/m² | - |
| 1777636852 | 9.44° C | 76% | 1017.9 hPa | 0 mm | - | 155 W/m² | - |
| 1777636547 | 8.89° C | 80% | 1017.8 hPa | 0 mm | - | 93 W/m² | - |
| 1777636243 | 7.78° C | 84% | 1017.8 hPa | 0 mm | - | 52 W/m² | - |
| 1777635937 | 7.22° C | 85% | 1017.8 hPa | 0 mm | - | 32 W/m² | - |
| 1777635633 | 6.67° C | 93% | 1017.7 hPa | 0 mm | - | 31 W/m² | - |
| 1777635331 | 6.11° C | 95% | 1017.8 hPa | 0 mm | - | 31 W/m² | - |
| 1777635027 | 5.56° C | 95% | 1017.6 hPa | 0 mm | - | 29 W/m² | - |
| 1777634723 | 5.56° C | 95% | 1017.6 hPa | 0 mm | - | 28 W/m² | - |
| 1777634421 | 5.56° C | 96% | 1017.5 hPa | 0 mm | - | 28 W/m² | - |
| 1777634118 | 5° C | 96% | 1017.6 hPa | 0 mm | - | 25 W/m² | - |
| 1777633814 | 4.44° C | 96% | 1017.6 hPa | 0 mm | - | 24 W/m² | - |
| 1777633512 | 4.44° C | 96% | 1017.5 hPa | 0 mm | - | 22 W/m² | - |
| 1777633210 | 3.89° C | 96% | 1017.6 hPa | 0 mm | - | 21 W/m² | - |
| 1777632907 | 3.89° C | 96% | 1017.5 hPa | 0 mm | - | 19 W/m² | - |
| 1777632602 | 3.89° C | 96% | 1017.5 hPa | 0 mm | - | 17 W/m² | - |
| 1777632300 | 3.89° C | 96% | 1017.4 hPa | 0 mm | - | 15 W/m² | - |
| 1777631996 | 3.89° C | 96% | 1017.4 hPa | 0 mm | - | 12 W/m² | - |
| 1777631695 | 3.89° C | 96% | 1017.3 hPa | 0 mm | - | 10 W/m² | - |
| 1777631392 | 3.89° C | 95% | 1017 hPa | 0 mm | - | 8 W/m² | - |
* Rain latest hour (hover to see other rain measurements)
** Current wind speed in m/s (hover to see current wind gust speed)